Tracking 19563 objects as of 20-Mar-2019
HD Live streaming from Space Station
objects crossing your sky now

LEMUR 2 KOBYSZCZE

Track LEMUR 2 KOBYSZCZE now!
10-day predictions
LEMUR 2 KOBYSZCZE is classified as:


NORAD ID: 43732
Int'l Code: 2018-096P
Perigee: 478.3 km
Apogee: 505.2 km
Inclination: 97.5 °
Period: 94.3 minutes
Semi major axis: 6862 km
RCS: Unknown
Launch date: November 29, 2018
Source: United States (US)
Launch site: SRIHARIKOTA (SRI)
aabbcc
Your satellite tracking list
Your tracking list is empty




NASA's NSSDC Master Catalog

Two Line Element Set (TLE):
1 43732U 18096P   19078.80618082  .00002826  00000-0  10877-3 0  9995
2 43732  97.4706 148.9734 0019614 299.3189 155.6335 15.27064684 16875
Source of the keplerian elements: AFSPC